map of CEB home
Great Circle Mapper logo
CEB - Airport
Location
City:  Lapu-Lapu, Philippines
Name:Mactan-Cebu International Airport
ICAO:RPVM
IATA:CEB

Details
Type:Airport (Aerodrome, Airfield)
Use:Public/Civil, Military, International (customs port of entry)
Latitude:1018'27"N (10.307542)
Longitude:12358'46"E (123.979439)
Datum:WGS 1984
Elevation:31 ft (9 m)
Variation:1.25W (WMM2015 magnetic declination)
-0.11 annual change
Runways:1
Longest:10827 × 148 ft (3300 × 45 m), paved

Time
Time Zone:UTC+8
Local Time:

Weather
METAR:RPVM 261600Z 04002KT 9999 FEW020 SCT090 27/25 Q1012 A2988
TAF:RPVM 261100Z 2612/2718 16008KT 9999 FEW020 BKN300
TEMPO 2612/2618 04006KT FEW020 BKN100
TEMPO 2618/2624 VRB04KT 9000 -SHRA SCT020 BKN100

Related Locations
Nearby:
Farthest:SJPP: 12449 mi / 20035 km
Alta Floresta [Aero Rural], MT, BR

Find:

   beyond  
but within

Other Information
Maps:
NOTAMs:
Links:
Sources:

  
flag of Philippines   

Sectional Chart

Flight Planning
at skyvector.com

Satellite Image

Google Maps Satellite view

 

Copyright © 2004-2016 Karl L. Swartz. All rights reserved.
The Great Circle Mapper name and logo are trademarks of the Great Circle Mapper.
All other trademarks mentioned herein belong to their respective owners.
Please see credits for attibutions and further copyright information.

  Follow gcmap on Facebook Follow gcmap on Twitter Follow gcmap on Google+ GCmap on LinkedIn

hCard Microformat

Geo Microformat